Hourly Weather Rusilovo

Today, 16 April, Friday

Time Temperature Precipitation Wind Pressure Humidity
00:00 +8°C° 0.4 mm 5 mps 738 mmHg 93%
01:00 +8°C° 0.4 mm 5 mps 738 mmHg 94%
02:00 +8°C° 0.4 mm 5 mps 738 mmHg 94%
03:00 +8°C° 0.4 mm 4 mps 738 mmHg 94%
04:00 +8°C° 0.4 mm 4 mps 738 mmHg 94%
05:00 +7°C° 0.4 mm 4 mps 738 mmHg 94%
06:00 +8°C° 0.1 mm 5 mps 739 mmHg 90%
07:00 +9°C° 0.1 mm 5 mps 739 mmHg 86%
08:00 +10°C° 0.1 mm 6 mps 739 mmHg 81%
09:00 +11°C° 0.3 mm 6 mps 739 mmHg 76%
10:00 +11°C° 0.3 mm 6 mps 740 mmHg 70%
11:00 +12°C° 0.3 mm 7 mps 740 mmHg 64%
12:00 +12°C° 0.4 mm 7 mps 740 mmHg 63%
13:00 +14°C° 0.4 mm 6 mps 740 mmHg 62%
14:00 +14°C° 0.4 mm 6 mps 740 mmHg 61%
15:00 +13°C° 0.8 mm 6 mps 740 mmHg 67%
16:00 +12°C° 0.8 mm 5 mps 740 mmHg 72%
17:00 +12°C° 0.8 mm 5 mps 740 mmHg 77%
18:00 +10°C° 0.8 mm 5 mps 740 mmHg 80%
19:00 +10°C° 0.8 mm 4 mps 740 mmHg 84%
20:00 +8°C° 0.8 mm 4 mps 741 mmHg 87%
21:00 +8°C° 0.3 mm 4 mps 741 mmHg 88%
22:00 +9°C° 0.3 mm 3 mps 741 mmHg 90%
23:00 +8°C° 0.3 mm 3 mps 741 mmHg 91%

Tomorrow, 17 April, Saturday

Time Temperature Precipitation Wind Pressure Humidity
00:00 +8°C° 0.2 mm 3 mps 741 mmHg 92%
01:00 +8°C° 0.2 mm 3 mps 741 mmHg 93%
02:00 +8°C° 0.2 mm 3 mps 742 mmHg 93%
03:00 +7°C° 0.1 mm 3 mps 742 mmHg 93%
04:00 +7°C° 0.1 mm 3 mps 742 mmHg 94%
05:00 +6°C° 0.1 mm 2 mps 742 mmHg 94%
06:00 +7°C° 0 mm 3 mps 743 mmHg 90%
07:00 +8°C° 0 mm 3 mps 743 mmHg 87%
08:00 +8°C° 0 mm 4 mps 743 mmHg 83%
09:00 +10°C° 0 mm 4 mps 743 mmHg 82%
10:00 +10°C° 0 mm 4 mps 743 mmHg 81%
11:00 +10°C° 0 mm 4 mps 744 mmHg 81%
12:00 +10°C° 0.4 mm 4 mps 743 mmHg 83%
13:00 +10°C° 0.4 mm 4 mps 743 mmHg 84%
14:00 +9°C° 0.4 mm 5 mps 743 mmHg 86%
15:00 +9°C° 0.5 mm 5 mps 743 mmHg 85%
16:00 +9°C° 0.5 mm 5 mps 743 mmHg 84%
17:00 +9°C° 0.5 mm 5 mps 743 mmHg 84%
18:00 +9°C° 0 mm 5 mps 743 mmHg 82%
19:00 +9°C° 0 mm 5 mps 743 mmHg 81%
20:00 +9°C° 0 mm 6 mps 743 mmHg 80%
21:00 +8°C° 0 mm 6 mps 743 mmHg 79%
22:00 +7°C° 0 mm 6 mps 743 mmHg 79%
23:00 +7°C° 0 mm 6 mps 743 mmHg 78%

Day after tomorrow, 18 April, Sunday

Time Temperature Precipitation Wind Pressure Humidity
00:00 +6°C° 0 mm 5 mps 743 mmHg 78%
01:00 +5°C° 0 mm 5 mps 743 mmHg 77%
02:00 +5°C° 0 mm 5 mps 743 mmHg 76%
03:00 +3°C° 0 mm 5 mps 743 mmHg 78%
04:00 +3°C° 0 mm 5 mps 743 mmHg 79%
05:00 +3°C° 0 mm 4 mps 743 mmHg 80%
06:00 +3°C° 0 mm 5 mps 743 mmHg 77%
07:00 +5°C° 0 mm 5 mps 743 mmHg 73%
08:00 +6°C° 0 mm 5 mps 743 mmHg 70%
09:00 +7°C° 0 mm 6 mps 743 mmHg 67%
10:00 +8°C° 0 mm 6 mps 743 mmHg 64%
11:00 +10°C° 0 mm 6 mps 743 mmHg 60%
12:00 +10°C° 0 mm 6 mps 743 mmHg 61%
13:00 +10°C° 0 mm 6 mps 744 mmHg 61%
14:00 +10°C° 0 mm 6 mps 744 mmHg 62%
15:00 +9°C° 0 mm 6 mps 744 mmHg 65%
16:00 +9°C° 0 mm 6 mps 744 mmHg 67%
17:00 +8°C° 0 mm 6 mps 744 mmHg 70%
18:00 +8°C° 0 mm 5 mps 745 mmHg 70%
19:00 +7°C° 0 mm 4 mps 745 mmHg 71%
20:00 +7°C° 0 mm 4 mps 745 mmHg 71%
21:00 +6°C° 0 mm 4 mps 745 mmHg 74%
22:00 +7°C° 0 mm 3 mps 745 mmHg 78%
23:00 +7°C° 0 mm 3 mps 745 mmHg 81%

19 April, Monday

Time Temperature Precipitation Wind Pressure Humidity
00:00 +5°C° 0 mm 3 mps 745 mmHg 84%
01:00 +4°C° 0 mm 3 mps 745 mmHg 88%
02:00 +3°C° 0 mm 3 mps 745 mmHg 92%
03:00 +3°C° 0 mm 3 mps 745 mmHg 89%
04:00 +3°C° 0 mm 4 mps 745 mmHg 87%
05:00 +4°C° 0 mm 4 mps 745 mmHg 84%
06:00 +4°C° 0 mm 4 mps 745 mmHg 80%
07:00 +5°C° 0 mm 5 mps 745 mmHg 75%
08:00 +6°C° 0 mm 5 mps 745 mmHg 71%
09:00 +5°C° 0 mm 6 mps 745 mmHg 70%
10:00 +7°C° 0 mm 6 mps 745 mmHg 70%
11:00 +8°C° 0 mm 6 mps 745 mmHg 69%
12:00 +7°C° 0 mm 6 mps 745 mmHg 72%
13:00 +7°C° 0 mm 6 mps 745 mmHg 75%
14:00 +5°C° 0 mm 6 mps 745 mmHg 79%
15:00 +5°C° 0 mm 6 mps 745 mmHg 80%
16:00 +5°C° 0 mm 6 mps 745 mmHg 81%
17:00 +5°C° 0 mm 6 mps 745 mmHg 82%
18:00 +6°C° 0 mm 5 mps 745 mmHg 82%
19:00 +6°C° 0 mm 5 mps 745 mmHg 81%
20:00 +5°C° 0 mm 5 mps 745 mmHg 81%
21:00 +4°C° 0 mm 6 mps 744 mmHg 80%
22:00 +4°C° 0 mm 6 mps 744 mmHg 79%
23:00 +4°C° 0 mm 6 mps 744 mmHg 78%

20 April, Tuesday

Time Temperature Precipitation Wind Pressure Humidity
00:00 +4°C° 0 mm 6 mps 743 mmHg 81%
01:00 +3°C° 0 mm 6 mps 743 mmHg 85%
02:00 +3°C° 0 mm 5 mps 743 mmHg 88%
03:00 +3°C° 0 mm 6 mps 742 mmHg 87%
04:00 +3°C° 0 mm 6 mps 742 mmHg 85%
05:00 +2°C° 0 mm 6 mps 741 mmHg 84%
06:00 +2°C° 0 mm 6 mps 741 mmHg 83%
07:00 +2°C° 0 mm 6 mps 741 mmHg 82%
08:00 +2°C° 0 mm 7 mps 741 mmHg 81%
09:00 +3°C° 0 mm 7 mps 740 mmHg 78%
10:00 +3°C° 0 mm 7 mps 740 mmHg 75%
11:00 +4°C° 0 mm 8 mps 739 mmHg 72%
12:00 +5°C° 0 mm 8 mps 738 mmHg 70%
13:00 +5°C° 0 mm 8 mps 737 mmHg 69%
14:00 +6°C° 0 mm 9 mps 736 mmHg 67%
15:00 +3°C° 0.5 mm 9 mps 735 mmHg 75%
16:00 +2°C° 0.5 mm 9 mps 735 mmHg 82%
17:00 +1°C° 0.5 mm 9 mps 734 mmHg 89%
18:00 0°C° 1.1 mm 9 mps 733 mmHg 91%
19:00 0°C° 1.1 mm 9 mps 732 mmHg 94%
20:00 -1°C° 1.1 mm 8 mps 732 mmHg 96%
21:00 -1°C° 0.6 mm 8 mps 731 mmHg 96%
22:00 -1°C° 0.6 mm 7 mps 730 mmHg 96%
23:00 -1°C° 0.6 mm 7 mps 730 mmHg 96%

21 April, Wednesday

Time Temperature Precipitation Wind Pressure Humidity
00:00 -1°C° 0.3 mm 6 mps 729 mmHg 96%
01:00 +1°C° 0.3 mm 6 mps 729 mmHg 96%
02:00 +2°C° 0.3 mm 5 mps 728 mmHg 96%
03:00 +2°C° 0.1 mm 5 mps 728 mmHg 96%
04:00 +2°C° 0.1 mm 5 mps 728 mmHg 97%
05:00 +3°C° 0.1 mm 5 mps 728 mmHg 97%
06:00 +4°C° 0.3 mm 4 mps 727 mmHg 97%
07:00 +4°C° 0.3 mm 3 mps 727 mmHg 97%
08:00 +4°C° 0.3 mm 3 mps 727 mmHg 97%
09:00 +5°C° 0.7 mm 3 mps 727 mmHg 97%
10:00 +6°C° 0.7 mm 2 mps 727 mmHg 96%
11:00 +6°C° 0.7 mm 2 mps 727 mmHg 95%
12:00 +7°C° 0.3 mm 1 mps 728 mmHg 94%
13:00 +7°C° 0.3 mm 1 mps 728 mmHg 93%
14:00 +6°C° 0.3 mm 0 mps 728 mmHg 93%
15:00 +7°C° 0.2 mm 1 mps 728 mmHg 94%
16:00 +6°C° 0.2 mm 2 mps 729 mmHg 94%
17:00 +6°C° 0.2 mm 2 mps 729 mmHg 95%
18:00 +4°C° 0.1 mm 3 mps 730 mmHg 96%
19:00 +3°C° 0.1 mm 4 mps 730 mmHg 96%
20:00 +3°C° 0.1 mm 4 mps 731 mmHg 96%
21:00 +3°C° 0.1 mm 4 mps 732 mmHg 96%
22:00 +1°C° 0.1 mm 4 mps 732 mmHg 96%
23:00 +1°C° 0.1 mm 4 mps 733 mmHg 96%
Show more